Weather History for Moses Lake, WA

Change the Weather History Date:

Tuesday, April 2, 2013

  Actual Average Record
Temperature  
Mean Temperature 58 °F 47 °F  
Max Temperature 74 °F 60 °F 74 °F (2013)
Min Temperature 41 °F 35 °F 25 °F (1999)
Degree Days  
Heating Degree Days 7 18  
Month to date heating degree days 15 36  
Since 1 July heating degree days 4746 5208  
Cooling Degree Days 0 0  
Month to date cooling degree days 0 0  
Year to date cooling degree days 0 0  
Growing Degree Days 8 (Base 50)    
Moisture  
Dew Point 37 °F    
Average Humidity 50    
Maximum Humidity 76    
Minimum Humidity 23    
Precipitation  
Precipitation 0.00 in 0.02 in 0.29 in (1983)
Month to date precipitation 0.00 0.05  
Year to date precipitation 1.02 2.77  
Sea Level Pressure  
Sea Level Pressure 30.02 in    
Wind  
Wind Speed 6 mph (SW)    
Max Wind Speed 21 mph    
Max Gust Speed 29 mph    
Visibility 10 miles    
Events      
T = Trace of Precipitation, MM = Missing Value Source: NWS Daily Summary

Daily Weather History Graph

Daily Weather History Graph

Search for Another Location

Airport:

Trip Planner

Search our weather history database for the weather conditions in past years. The results will help you decide how hot, cold, wet, or windy it might be!

Date:

Astronomy

Apr. 02, 2013 Rise Set
Actual Time 6:33 AM PDT 7:28 PM PDT
Civil Twilight 6:02 AM PDT 7:59 PM PDT
Nautical Twilight 5:25 AM PDT 8:37 PM PDT
Astronomical Twilight 4:46 AM PDT 9:16 PM PDT
Moon 1:54 AM PDT (4/2) 11:14 AM PDT (4/2)
Length of Visible Light 13h 57m
Length of Day
12h 55m
Waning Gibbous, 55% of the Moon is Illuminated
Apr 2
Waning Gibbous
Apr 2
Last Quarter
Apr 10
New
Apr 18
First Quarter
Apr 25
Full

Hourly Weather History & Observations

Time (PDT) Temp. Windchill Dew Point Humidity Pressure Visibility Wind Dir Wind Speed Gust Speed Precip Events Conditions
12:52 AM 54.0 °F - 37.9 °F 55% 29.98 in 10.0 mi West 8.1 mph - N/A   Clear
1:52 AM 53.1 °F - 39.0 °F 59% 29.99 in 10.0 mi WSW 3.5 mph - N/A   Clear
2:52 AM 48.0 °F - 37.0 °F 66% 29.99 in 10.0 mi Calm Calm - N/A   Clear
3:52 AM 48.0 °F - 37.0 °F 66% 30.01 in 10.0 mi Calm Calm - N/A   Clear
4:52 AM 45.0 °F 43.5 °F 36.0 °F 71% 30.02 in 10.0 mi South 3.5 mph - N/A   Clear
5:52 AM 43.0 °F - 35.1 °F 74% 30.03 in 10.0 mi Calm Calm - N/A   Clear
6:52 AM 43.0 °F - 34.0 °F 71% 30.04 in 10.0 mi Calm Calm - N/A   Clear
7:52 AM 48.9 °F - 37.9 °F 66% 30.05 in 10.0 mi SSE 3.5 mph - N/A   Clear
8:52 AM 55.9 °F - 37.9 °F 51% 30.06 in 10.0 mi Calm Calm - N/A   Clear
9:52 AM 60.1 °F - 35.1 °F 39% 30.06 in 10.0 mi Variable 3.5 mph - N/A   Clear
10:52 AM 64.0 °F - 37.0 °F 37% 30.06 in 10.0 mi Calm Calm - N/A   Clear
11:52 AM 68.0 °F - 35.1 °F 30% 30.05 in 10.0 mi West 10.4 mph - N/A   Clear
12:52 PM 69.1 °F - 35.1 °F 29% 30.04 in 10.0 mi South 10.4 mph - N/A   Clear
1:52 PM 70.0 °F - 34.0 °F 27% 30.02 in 10.0 mi South 5.8 mph - N/A   Clear
2:52 PM 73.0 °F - 34.0 °F 24% 30.01 in 10.0 mi South 4.6 mph - N/A   Clear
3:52 PM 72.0 °F - 35.1 °F 26% 29.99 in 10.0 mi Calm Calm - N/A   Clear
4:52 PM 73.0 °F - 39.0 °F 29% 29.98 in 10.0 mi SW 18.4 mph 28.8 mph N/A   Clear
5:52 PM 70.0 °F - 39.9 °F 33% 29.99 in 10.0 mi SW 13.8 mph - N/A   Clear
6:48 PM 66.2 °F - 39.2 °F 37% 29.98 in 10.0 mi West 10.4 mph - N/A   Clear
6:52 PM 66.9 °F - 39.0 °F 36% 29.99 in 10.0 mi West 10.4 mph - N/A   Clear
7:52 PM 62.1 °F - 39.0 °F 43% 29.99 in 10.0 mi West 9.2 mph - N/A   Clear
8:52 PM 59.0 °F - 39.0 °F 48% 30.01 in 10.0 mi WSW 5.8 mph - N/A   Clear
9:52 PM 57.0 °F - 37.9 °F 49% 30.02 in 10.0 mi WSW 8.1 mph - N/A   Clear
10:52 PM 54.0 °F - 37.9 °F 55% 30.02 in 10.0 mi West 8.1 mph - N/A   Clear
11:52 PM 53.1 °F - 37.9 °F 57% 30.02 in 10.0 mi West 11.5 mph - N/A   Clear